Time,TemperatureF,DewpointF,PressureIn,WindDirection,WindDirectionDegrees,WindSpeedMPH,WindSpeedGustMPH,Humidity,HourlyPrecipIn,Conditions,Clouds,dailyrainin,SoftwareType,DateUTC
2013-01-17 00:05:00,51.0,51.0,-100.00,ESE,115,0.0,2.0,99,-99.99,,,-99.99,,2013-01-17 05:05:00,
2013-01-17 00:12:00,51.0,51.0,-100.00,East,80,0.0,2.0,99,-99.99,,,-99.99,,2013-01-17 05:12:00,
2013-01-17 00:22:00,51.0,51.0,-100.00,SE,125,0.0,2.0,99,-99.99,,,-99.99,,2013-01-17 05:22:00,
2013-01-17 00:33:00,51.0,51.0,-100.00,SE,125,0.0,2.0,99,-99.99,,,-99.99,,2013-01-17 05:33:00,
2013-01-17 00:42:00,51.0,51.0,-100.00,SE,130,0.0,4.0,99,-99.99,,,-99.99,,2013-01-17 05:42:00,
2013-01-17 00:52:00,51.0,51.0,-100.00,ESE,105,1.0,2.0,99,-99.99,,,-99.99,,2013-01-17 05:52:00,
2013-01-17 01:03:00,51.0,51.0,-100.00,ENE,70,0.0,1.0,99,-99.99,,,-99.99,,2013-01-17 06:03:00,
2013-01-17 01:12:00,51.0,51.0,-100.00,ENE,65,0.0,0.0,99,-99.99,,,-99.99,,2013-01-17 06:12:00,
2013-01-17 01:22:00,51.0,51.0,-100.00,North,0,1.0,1.0,99,-99.99,,,-99.99,,2013-01-17 06:22:00,
2013-01-17 01:33:00,51.0,51.0,-100.00,WSW,240,0.0,1.0,99,-99.99,,,-99.99,,2013-01-17 06:33:00,
2013-01-17 01:42:00,51.0,51.0,-100.00,SE,140,1.0,1.0,99,-99.99,,,-99.99,,2013-01-17 06:42:00,
2013-01-17 01:52:00,51.0,51.0,-100.00,SE,140,1.0,1.0,99,-99.99,,,-99.99,,2013-01-17 06:52:00,
2013-01-17 02:02:00,51.0,51.0,-100.00,SE,130,0.0,3.0,99,-99.99,,,-99.99,,2013-01-17 07:02:00,
2013-01-17 02:12:00,51.0,51.0,-100.00,SSE,155,1.0,2.0,99,-99.99,,,-99.99,,2013-01-17 07:12:00,
2013-01-17 02:22:00,51.0,51.0,-100.00,ENE,70,1.0,3.0,99,-99.99,,,-99.99,,2013-01-17 07:22:00,
2013-01-17 02:33:00,52.0,51.0,-100.00,East,90,1.0,1.0,99,-99.99,,,-99.99,,2013-01-17 07:33:00,
2013-01-17 02:42:00,52.0,51.0,-100.00,NE,55,0.0,1.0,99,-99.99,,,-99.99,,2013-01-17 07:42:00,
2013-01-17 02:52:00,51.0,51.0,-100.00,North,10,0.0,1.0,99,-99.99,,,-99.99,,2013-01-17 07:52:00,
2013-01-17 03:02:00,51.0,51.0,-100.00,SSE,165,0.0,1.0,99,-99.99,,,-99.99,,2013-01-17 08:02:00,
2013-01-17 03:12:00,51.0,51.0,-100.00,NNE,15,1.0,2.0,99,-99.99,,,-99.99,,2013-01-17 08:12:00,
2013-01-17 03:22:00,52.0,51.0,-100.00,NNE,15,0.0,1.0,99,-99.99,,,-99.99,,2013-01-17 08:22:00,
2013-01-17 03:32:00,52.0,51.0,-100.00,East,90,0.0,1.0,99,-99.99,,,-99.99,,2013-01-17 08:32:00,
2013-01-17 03:43:00,51.0,51.0,-100.00,SE,125,0.0,2.0,99,-99.99,,,-99.99,,2013-01-17 08:43:00,
2013-01-17 03:52:00,51.0,51.0,-100.00,SE,145,1.0,4.0,99,-99.99,,,-99.99,,2013-01-17 08:52:00,
2013-01-17 04:03:00,52.0,51.0,-100.00,SE,145,0.0,1.0,99,-99.99,,,-99.99,,2013-01-17 09:03:00,
2013-01-17 04:12:00,51.0,51.0,-100.00,East,80,1.0,1.0,99,-99.99,,,-99.99,,2013-01-17 09:12:00,
2013-01-17 04:22:00,51.0,51.0,-100.00,East,100,1.0,3.0,99,-99.99,,,-99.99,,2013-01-17 09:22:00,
2013-01-17 04:33:00,51.0,51.0,-100.00,East,80,1.0,4.0,99,-99.99,,,-99.99,,2013-01-17 09:33:00,
2013-01-17 04:42:00,51.0,51.0,-100.00,East,100,0.0,3.0,99,-99.99,,,-99.99,,2013-01-17 09:42:00,
2013-01-17 04:52:00,51.0,51.0,-100.00,ESE,120,0.0,3.0,99,-99.99,,,-99.99,,2013-01-17 09:52:00,
2013-01-17 05:02:00,52.0,51.0,-100.00,ENE,70,0.0,1.0,99,-99.99,,,-99.99,,2013-01-17 10:02:00,
2013-01-17 05:12:00,52.0,51.0,-100.00,East,90,1.0,2.0,99,-99.99,,,-99.99,,2013-01-17 10:12:00,
2013-01-17 05:22:00,52.0,51.0,-100.00,East,85,2.0,4.0,99,-99.99,,,-99.99,,2013-01-17 10:22:00,
2013-01-17 05:32:00,52.0,51.0,-100.00,ESE,105,2.0,5.0,99,-99.99,,,-99.99,,2013-01-17 10:32:00,
2013-01-17 05:42:00,51.0,51.0,-100.00,East,90,3.0,5.0,99,-99.99,,,-99.99,,2013-01-17 10:42:00,
2013-01-17 05:52:00,51.0,51.0,-100.00,ENE,75,4.0,6.0,99,-99.99,,,-99.99,,2013-01-17 10:52:00,
2013-01-17 06:03:00,51.0,51.0,-100.00,East,85,4.0,6.0,99,-99.99,,,-99.99,,2013-01-17 11:03:00,
2013-01-17 06:12:00,51.0,51.0,-100.00,ENE,75,3.0,6.0,99,-99.99,,,-99.99,,2013-01-17 11:12:00,
2013-01-17 06:22:00,51.0,51.0,-100.00,East,85,3.0,6.0,99,-99.99,,,-99.99,,2013-01-17 11:22:00,
2013-01-17 06:33:00,51.0,51.0,-100.00,East,85,1.0,5.0,99,-99.99,,,-99.99,,2013-01-17 11:33:00,
2013-01-17 06:43:00,51.0,51.0,-100.00,East,90,3.0,6.0,99,-99.99,,,-99.99,,2013-01-17 11:43:00,
2013-01-17 06:52:00,51.0,51.0,-100.00,ENE,75,4.0,6.0,99,-99.99,,,-99.99,,2013-01-17 11:52:00,
2013-01-17 07:03:00,51.0,51.0,-100.00,East,85,3.0,7.0,99,-99.99,,,-99.99,,2013-01-17 12:03:00,
2013-01-17 07:12:00,51.0,51.0,-100.00,East,95,1.0,9.0,99,-99.99,,,-99.99,,2013-01-17 12:12:00,
2013-01-17 07:23:00,51.0,51.0,-100.00,East,90,4.0,6.0,99,-99.99,,,-99.99,,2013-01-17 12:23:00,
2013-01-17 07:33:00,51.0,51.0,-100.00,East,90,4.0,9.0,99,-99.99,,,-99.99,,2013-01-17 12:33:00,
2013-01-17 07:43:00,51.0,51.0,-100.00,ENE,75,1.0,4.0,99,-99.99,,,-99.99,,2013-01-17 12:43:00,
2013-01-17 07:52:00,52.0,51.0,-100.00,WNW,285,1.0,8.0,99,-99.99,,,-99.99,,2013-01-17 12:52:00,
2013-01-17 08:03:00,52.0,51.0,-100.00,East,100,1.0,5.0,99,-99.99,,,-99.99,,2013-01-17 13:03:00,
2013-01-17 08:12:00,52.0,52.0,-100.00,East,90,6.0,9.0,99,-99.99,,,-99.99,,2013-01-17 13:12:00,
2013-01-17 08:23:00,52.0,52.0,-100.00,East,80,4.0,6.0,99,-99.99,,,-99.99,,2013-01-17 13:23:00,
2013-01-17 08:33:00,52.0,52.0,-100.00,East,80,4.0,6.0,99,-99.99,,,-99.99,,2013-01-17 13:33:00,
2013-01-17 08:43:00,52.0,52.0,-100.00,East,100,2.0,6.0,99,-99.99,,,-99.99,,2013-01-17 13:43:00,
2013-01-17 08:53:00,53.0,52.0,-100.00,ENE,65,4.0,9.0,99,-99.99,,,-99.99,,2013-01-17 13:53:00,
2013-01-17 09:03:00,53.0,52.0,-100.00,East,80,4.0,11.0,99,-99.99,,,-99.99,,2013-01-17 14:03:00,
2013-01-17 09:13:00,53.0,52.0,-100.00,ESE,105,5.0,8.0,99,-99.99,,,-99.99,,2013-01-17 14:13:00,
2013-01-17 09:23:00,53.0,52.0,-100.00,East,80,3.0,8.0,99,-99.99,,,-99.99,,2013-01-17 14:23:00,
2013-01-17 09:33:00,53.0,53.0,-100.00,ENE,60,4.0,10.0,99,-99.99,,,-99.99,,2013-01-17 14:33:00,
2013-01-17 09:43:00,53.0,52.0,-100.00,ENE,65,3.0,9.0,99,-99.99,,,-99.99,,2013-01-17 14:43:00,
2013-01-17 09:53:00,53.0,52.0,-100.00,ENE,65,2.0,13.0,99,-99.99,,,-99.99,,2013-01-17 14:53:00,
2013-01-17 10:03:00,53.0,52.0,-100.00,ENE,75,4.0,10.0,99,-99.99,,,-99.99,,2013-01-17 15:03:00,
2013-01-17 10:13:00,53.0,53.0,-100.00,ESE,105,3.0,12.0,99,-99.99,,,-99.99,,2013-01-17 15:13:00,
2013-01-17 10:23:00,53.0,53.0,-100.00,East,85,2.0,9.0,99,-99.99,,,-99.99,,2013-01-17 15:23:00,
2013-01-17 10:33:00,53.0,53.0,-100.00,ENE,65,3.0,13.0,99,-99.99,,,-99.99,,2013-01-17 15:33:00,
2013-01-17 10:43:00,53.0,52.0,-100.00,ENE,75,4.0,12.0,99,-99.99,,,-99.99,,2013-01-17 15:43:00,
2013-01-17 10:53:00,53.0,52.0,-100.00,East,90,4.0,12.0,99,-99.99,,,-99.99,,2013-01-17 15:53:00,
2013-01-17 11:03:00,53.0,52.0,-100.00,East,80,7.0,16.0,99,-99.99,,,-99.99,,2013-01-17 16:03:00,
2013-01-17 11:12:00,53.0,52.0,-100.00,East,90,4.0,14.0,99,-99.99,,,-99.99,,2013-01-17 16:12:00,
2013-01-17 11:23:00,52.0,52.0,-100.00,East,90,4.0,14.0,99,-99.99,,,-99.99,,2013-01-17 16:23:00,
2013-01-17 11:33:00,52.0,52.0,-100.00,ESE,115,5.0,10.0,99,-99.99,,,-99.99,,2013-01-17 16:33:00,
2013-01-17 11:43:00,52.0,52.0,-100.00,East,100,5.0,17.0,99,-99.99,,,-99.99,,2013-01-17 16:43:00,
2013-01-17 11:53:00,52.0,51.0,-100.00,East,90,4.0,19.0,99,-99.99,,,-99.99,,2013-01-17 16:53:00,
2013-01-17 12:03:00,51.0,51.0,-100.00,East,100,8.0,16.0,99,-99.99,,,-99.99,,2013-01-17 17:03:00,
2013-01-17 12:13:00,51.0,51.0,-100.00,ENE,75,11.0,18.0,99,-99.99,,,-99.99,,2013-01-17 17:13:00,
2013-01-17 12:23:00,51.0,51.0,-100.00,ENE,70,8.0,19.0,99,-99.99,,,-99.99,,2013-01-17 17:23:00,
2013-01-17 12:33:00,51.0,51.0,-100.00,East,80,4.0,14.0,99,-99.99,,,-99.99,,2013-01-17 17:33:00,
2013-01-17 12:43:00,51.0,51.0,-100.00,ENE,75,4.0,14.0,99,-99.99,,,-99.99,,2013-01-17 17:43:00,
2013-01-17 12:53:00,51.0,50.0,-100.00,East,95,4.0,21.0,99,-99.99,,,-99.99,,2013-01-17 17:53:00,
2013-01-17 13:04:00,51.0,50.0,-100.00,SE,125,4.0,16.0,99,-99.99,,,-99.99,,2013-01-17 18:04:00,
2013-01-17 13:13:00,50.0,50.0,-100.00,East,80,9.0,21.0,99,-99.99,,,-99.99,,2013-01-17 18:13:00,
2013-01-17 13:23:00,50.0,50.0,-100.00,East,95,4.0,19.0,99,-99.99,,,-99.99,,2013-01-17 18:23:00,
2013-01-17 13:34:00,50.0,50.0,-100.00,ENE,75,7.0,19.0,99,-99.99,,,-99.99,,2013-01-17 18:34:00,
2013-01-17 13:44:00,50.0,50.0,-100.00,East,85,4.0,16.0,99,-99.99,,,-99.99,,2013-01-17 18:44:00,
2013-01-17 13:53:00,50.0,50.0,-100.00,ENE,75,5.0,16.0,99,-99.99,,,-99.99,,2013-01-17 18:53:00,
2013-01-17 14:03:00,50.0,50.0,-100.00,NE,40,4.0,15.0,99,-99.99,,,-99.99,,2013-01-17 19:03:00,
2013-01-17 14:13:00,50.0,49.0,-100.00,East,80,5.0,24.0,99,-99.99,,,-99.99,,2013-01-17 19:13:00,
2013-01-17 14:23:00,49.0,49.0,-100.00,East,95,4.0,15.0,99,-99.99,,,-99.99,,2013-01-17 19:23:00,
2013-01-17 14:33:00,49.0,49.0,-100.00,East,90,5.0,12.0,99,-99.99,,,-99.99,,2013-01-17 19:33:00,
2013-01-17 14:43:00,49.0,49.0,-100.00,East,80,7.0,23.0,99,-99.99,,,-99.99,,2013-01-17 19:43:00,
2013-01-17 14:53:00,48.0,48.0,-100.00,East,90,9.0,25.0,99,-99.99,,,-99.99,,2013-01-17 19:53:00,
2013-01-17 15:03:00,48.0,48.0,-100.00,East,85,9.0,23.0,99,-99.99,,,-99.99,,2013-01-17 20:03:00,
2013-01-17 15:13:00,48.0,48.0,-100.00,East,90,4.0,17.0,99,-99.99,,,-99.99,,2013-01-17 20:13:00,
2013-01-17 15:23:00,48.0,48.0,-100.00,East,80,6.0,15.0,99,-99.99,,,-99.99,,2013-01-17 20:23:00,
2013-01-17 15:33:00,48.0,48.0,-100.00,East,85,9.0,19.0,99,-99.99,,,-99.99,,2013-01-17 20:33:00,
2013-01-17 15:43:00,48.0,47.0,-100.00,East,85,4.0,19.0,99,-99.99,,,-99.99,,2013-01-17 20:43:00,
2013-01-17 15:53:00,47.0,47.0,-100.00,ENE,75,6.0,20.0,99,-99.99,,,-99.99,,2013-01-17 20:53:00,
2013-01-17 16:03:00,47.0,46.0,-100.00,East,90,9.0,20.0,99,-99.99,,,-99.99,,2013-01-17 21:03:00,
2013-01-17 16:13:00,46.0,46.0,-100.00,East,85,4.0,14.0,99,-99.99,,,-99.99,,2013-01-17 21:13:00,
2013-01-17 16:23:00,46.0,46.0,-100.00,East,90,6.0,20.0,99,-99.99,,,-99.99,,2013-01-17 21:23:00,
2013-01-17 16:34:00,46.0,46.0,-100.00,SE,130,6.0,23.0,99,-99.99,,,-99.99,,2013-01-17 21:34:00,
2013-01-17 16:43:00,46.0,46.0,-100.00,East,85,5.0,24.0,99,-99.99,,,-99.99,,2013-01-17 21:43:00,
2013-01-17 16:53:00,46.0,46.0,-100.00,East,85,9.0,26.0,99,-99.99,,,-99.99,,2013-01-17 21:53:00,
2013-01-17 17:04:00,46.0,46.0,-100.00,East,85,10.0,24.0,99,-99.99,,,-99.99,,2013-01-17 22:04:00,
2013-01-17 17:12:00,46.0,45.0,-100.00,East,95,13.0,26.0,99,-99.99,,,-99.99,,2013-01-17 22:12:00,
2013-01-17 17:23:00,45.0,45.0,-100.00,East,85,10.0,24.0,99,-99.99,,,-99.99,,2013-01-17 22:23:00,
2013-01-17 17:33:00,45.0,45.0,-100.00,SE,125,6.0,26.0,99,-99.99,,,-99.99,,2013-01-17 22:33:00,
2013-01-17 17:43:00,45.0,45.0,-100.00,East,80,7.0,16.0,99,-99.99,,,-99.99,,2013-01-17 22:43:00,
2013-01-17 17:52:00,45.0,45.0,-100.00,East,85,4.0,14.0,99,-99.99,,,-99.99,,2013-01-17 22:52:00,
2013-01-17 18:03:00,45.0,45.0,-100.00,East,90,6.0,14.0,99,-99.99,,,-99.99,,2013-01-17 23:03:00,
2013-01-17 18:12:00,45.0,45.0,-100.00,East,85,4.0,14.0,99,-99.99,,,-99.99,,2013-01-17 23:12:00,
2013-01-17 18:23:00,45.0,45.0,-100.00,East,85,2.0,14.0,99,-99.99,,,-99.99,,2013-01-17 23:23:00,
2013-01-17 18:33:00,45.0,45.0,-100.00,East,85,2.0,14.0,99,-99.99,,,-99.99,,2013-01-17 23:33:00,
2013-01-17 18:43:00,45.0,45.0,-100.00,East,85,5.0,14.0,99,-99.99,,,-99.99,,2013-01-17 23:43:00,
2013-01-17 18:53:00,44.0,44.0,-100.00,East,100,6.0,19.0,99,-99.99,,,-99.99,,2013-01-17 23:53:00,
2013-01-17 19:03:00,44.0,44.0,-100.00,East,90,5.0,23.0,99,-99.99,,,-99.99,,2013-01-18 00:03:00,
2013-01-17 19:12:00,44.0,43.0,-100.00,East,80,10.0,25.0,99,-99.99,,,-99.99,,2013-01-18 00:12:00,
2013-01-17 19:23:00,43.0,43.0,-100.00,East,90,11.0,27.0,99,-99.99,,,-99.99,,2013-01-18 00:23:00,
2013-01-17 19:33:00,43.0,43.0,-100.00,East,90,11.0,27.0,99,-99.99,,,-99.99,,2013-01-18 00:33:00,
2013-01-17 19:43:00,43.0,43.0,-100.00,ENE,70,6.0,16.0,99,-99.99,,,-99.99,,2013-01-18 00:43:00,
2013-01-17 19:52:00,43.0,43.0,-100.00,ESE,115,1.0,14.0,99,-99.99,,,-99.99,,2013-01-18 00:52:00,
2013-01-17 20:03:00,43.0,42.0,-100.00,ENE,60,1.0,14.0,99,-99.99,,,-99.99,,2013-01-18 01:03:00,
2013-01-17 20:13:00,42.0,42.0,-100.00,NE,55,4.0,11.0,99,-99.99,,,-99.99,,2013-01-18 01:13:00,
2013-01-17 20:23:00,42.0,42.0,-100.00,ENE,75,3.0,9.0,99,-99.99,,,-99.99,,2013-01-18 01:23:00,
2013-01-17 20:33:00,42.0,42.0,-100.00,East,80,4.0,9.0,99,-99.99,,,-99.99,,2013-01-18 01:33:00,
2013-01-17 20:43:00,42.0,42.0,-100.00,East,80,3.0,6.0,99,-99.99,,,-99.99,,2013-01-18 01:43:00,
2013-01-17 20:52:00,42.0,41.0,-100.00,East,100,1.0,8.0,99,-99.99,,,-99.99,,2013-01-18 01:52:00,
2013-01-17 21:03:00,42.0,41.0,-100.00,East,95,1.0,4.0,99,-99.99,,,-99.99,,2013-01-18 02:03:00,
2013-01-17 21:12:00,41.0,41.0,-100.00,East,85,1.0,6.0,99,-99.99,,,-99.99,,2013-01-18 02:12:00,
2013-01-17 21:23:00,41.0,41.0,-100.00,ENE,75,3.0,9.0,99,-99.99,,,-99.99,,2013-01-18 02:23:00,
2013-01-17 21:33:00,41.0,41.0,-100.00,ENE,70,2.0,11.0,99,-99.99,,,-99.99,,2013-01-18 02:33:00,
2013-01-17 21:43:00,41.0,40.0,-100.00,NE,35,1.0,7.0,99,-99.99,,,-99.99,,2013-01-18 02:43:00,
2013-01-17 21:52:00,40.0,40.0,-100.00,ENE,60,4.0,13.0,99,-99.99,,,-99.99,,2013-01-18 02:52:00,
2013-01-17 22:02:00,40.0,40.0,-100.00,ENE,70,3.0,10.0,99,-99.99,,,-99.99,,2013-01-18 03:02:00,
2013-01-17 22:13:00,40.0,40.0,-100.00,East,80,4.0,11.0,99,-99.99,,,-99.99,,2013-01-18 03:13:00,
2013-01-17 22:23:00,40.0,39.0,-100.00,ENE,70,3.0,12.0,99,-99.99,,,-99.99,,2013-01-18 03:23:00,
2013-01-17 22:33:00,40.0,39.0,-100.00,ENE,70,4.0,11.0,99,-99.99,,,-99.99,,2013-01-18 03:33:00,
2013-01-17 22:43:00,40.0,39.0,-100.00,East,80,5.0,11.0,99,-99.99,,,-99.99,,2013-01-18 03:43:00,
2013-01-17 22:52:00,40.0,39.0,-100.00,East,90,4.0,10.0,99,-99.99,,,-99.99,,2013-01-18 03:52:00,
2013-01-17 23:02:00,40.0,39.0,-100.00,East,95,5.0,9.0,99,-99.99,,,-99.99,,2013-01-18 04:02:00,
2013-01-17 23:12:00,40.0,39.0,-100.00,East,90,4.0,7.0,99,-99.99,,,-99.99,,2013-01-18 04:12:00,
2013-01-17 23:22:00,39.0,39.0,-100.00,East,80,2.0,6.0,99,-99.99,,,-99.99,,2013-01-18 04:22:00,
2013-01-17 23:33:00,39.0,39.0,-100.00,NNE,15,1.0,5.0,99,-99.99,,,-99.99,,2013-01-18 04:33:00,
2013-01-17 23:42:00,39.0,39.0,-100.00,East,100,1.0,4.0,99,-99.99,,,-99.99,,2013-01-18 04:42:00,
2013-01-17 23:53:00,39.0,39.0,-100.00,North,355,1.0,5.0,99,-99.99,,,-99.99,,2013-01-18 04:53:00,